sat.trackr.live / text

‹ back to catalog

STARLINK-1172

NORAD 45074 · 2020-006AG

PAYLOAD ACTIVE UNKNOWN

§ Identity

Operator
Country
US
Launch date
2020-01-29
Launch site
AFETR
Launch vehicle
Mass (kg)
RCS (m²)

Purposes: comms

External: N2YO · Heavens-Above · Gunter

§ Orbital elements

Epoch: 2026-09-20T03:23:43.653408Z

Period
93.07 min
Inclination
53.1496°
Eccentricity
0.0001252
Mean motion
15.47286608 rev/d
Perigee alt
423.8 km
Apogee alt
425.5 km
Semi-major
6,802.8 km
B*
9.1602e-4
RAAN
62.3408°
Arg perigee
172.6641°
Mean anomaly
187.4385°
Rev number
36,681

§ Raw data

STARLINK-11721 45074U 20006AG  26263.14147747  .00047322  00000+0  91602-3 0  99902 45074  53.1496  62.3408 0001252 172.6641 187.4385 15.47286608366817

JSON: /api/v1/satellites/45074 · /tle

For live sub-satellite position, see the globe view (requires WebGL).

§ Visibility from observer

Set your observer location to see the next 7 days of passes ≥ 10°. The values pass through the URL so the page stays shareable.

No JS? Fill the form by hand. The geolocation button needs JavaScript.